#timestamp,LO_Frequency,Hit,StdDev 
1518087615.3,286047001.1,N
1518087635.1,286047000.1,N
1518087655.8,286047002.5,N
1518087675.7,286047000.1,N
1518087695.5,286047000.1,N
1518087715.4,286047002.3,N
1518087735.2,286047000.8,N
1518087755.0,286047001.0,N
1518087755.9,286047001.0,N
1518087775.8,286047000.5,N
1518087795.6,286047001.0,N
1518087815.4,286047000.6,N
1518087835.3,286047001.0,N
1518087855.1,286047000.8,N
1518087875.9,286046998.9,N
1518087895.7,286047000.0,N
1518087915.5,286046999.9,N
1518087935.4,286047002.4,N
1518087955.2,286047000.6,N
1518087975.0,286047000.6,N
1518087975.9,286047000.6,N
1518087995.8,286047000.8,N
1518088015.6,286047002.1,N
1518088035.5,286047002.2,N
1518088055.3,286046998.5,N
1518088075.1,286047000.8,N
1518088095.9,286046999.4,N
1518088115.7,286047001.1,N
1518088135.5,286046998.5,N
1518088155.4,286046999.3,N
1518088175.2,286046999.1,N
1518088195.1,286046996.9,N
1518088196.0,286046996.9,N
1518088215.8,286046998.5,N
1518088235.6,286046998.5,N
1518088255.5,286046998.6,N
1518088275.3,286046998.5,N
1518088295.2,286046999.9,N
1518088315.9,286047000.7,N
1518088335.7,286047001.2,N
1518088355.6,286047000.9,N
1518088375.4,286047000.7,N
1518088395.2,286046998.1,N
1518088415.1,286047000.7,N
1518088416.0,286047000.7,N
1518088435.8,286047000.6,N
1518088455.7,286047000.7,N
1518088475.5,286046998.5,N
1518088495.3,286047001.2,N
1518088515.2,286046998.9,N
1518088535.0,286046996.7,N
1518088535.9,286046996.7,N
1518088555.7,286046996.6,N
1518088575.6,286046998.8,N
1518088595.4,286046999.1,N
1518088615.3,286046998.6,N
1518088635.1,286046999.3,N
1518088636.0,286046999.3,N
1518088655.8,286047000.8,N
1518088675.7,286046998.7,N
1518088695.5,286046999.4,N
1518088715.4,286046998.3,N
1518088735.2,286046998.8,N
1518088755.0,286047000.9,N
1518088755.9,286047000.9,N
1518088775.8,286046998.6,N
1518088795.6,286047001.2,N
1518088815.4,286047000.4,N
1518088835.3,286046998.3,N
1518088855.1,286047000.0,N
1518088875.9,286046999.9,N
1518088895.7,286047000.8,N
1518088915.5,286047001.0,N
1518088935.4,286047000.3,N
1518088955.2,286046999.0,N
1518088975.0,286046999.4,N
1518088975.9,286046999.4,N
1518088995.8,286046998.7,N
1518089015.6,286046999.2,N
1518089035.5,286046999.2,N
1518089055.3,286046998.2,N
1518089075.1,286047000.7,N
1518089095.9,286047001.2,N
1518089115.7,286047002.6,N
1518089135.5,286047001.5,N
1518089155.4,286047002.1,N
1518089175.2,286047002.8,N
1518089195.1,286047002.7,N
1518089196.0,286047002.7,N
1518089215.8,286047000.0,N
1518089235.6,286046999.7,N
1518089255.5,286047002.8,N
1518089275.3,286047001.5,N
1518089295.2,286047002.7,N
1518089315.9,286047000.3,N
1518089335.8,286047000.7,N
1518089355.7,286046998.7,N
1518089375.5,286046998.7,N
1518089395.3,286046998.9,N
1518089415.2,286046999.3,N
1518089435.0,286046999.0,N
1518089435.9,286046999.0,N
1518089455.8,286046998.8,N
1518089475.6,286046996.8,N
1518089495.4,286046998.9,N
1518089515.3,286046998.4,N
1518089535.1,286046999.0,N
1518089555.9,286046998.6,N
1518089575.7,286047000.8,N
1518089595.5,286047000.1,N
1518089615.4,286047000.2,N
1518089635.2,286046998.2,N
1518089655.1,286046998.6,N
1518089656.0,286046998.6,N
1518089675.8,286046998.1,N
1518089695.6,286047000.9,N
1518089715.5,286046998.7,N
1518089735.3,286047001.0,N
1518089755.1,286047002.5,N
1518089775.9,286047000.9,N
1518089795.7,286047000.5,N
1518089815.6,286047001.5,N
1518089835.4,286047001.3,N
1518089855.2,286047004.0,N
1518089875.1,286047001.3,N
1518089876.0,286047001.3,N
1518089895.8,286047004.0,N
1518089915.7,286047001.9,N
1518089935.5,286047000.5,N
1518089955.3,286047000.3,N
1518089975.2,286047000.1,N
1518089995.0,286047000.3,N
1518089995.9,286047000.3,N
1518090015.8,286047000.0,N
1518090035.6,286047000.6,N
1518090055.4,286047000.6,N
1518090075.3,286046999.8,N
1518090095.1,286046998.5,N
1518090115.8,286046998.2,N
1518090135.7,286046998.9,N
1518090155.5,286046998.5,N
1518090175.4,286046998.8,N
1518090195.2,286046999.4,N
1518090215.0,286046998.7,N
1518090215.9,286046998.7,N
1518090235.8,286046999.1,N
1518090255.6,286046999.2,N
1518090275.5,286046999.1,N
1518090295.3,286046996.9,N
1518090315.1,286046995.3,Y
1518090335.9,286046997.9,P
1518090355.7,286046997.7,N
1518090375.6,286047011.9,P
1518090395.4,286046995.7,N
1518090415.2,286046996.4,N
1518090435.1,286046995.8,N
1518090436.0,286046995.8,N
1518090455.8,286046995.7,N
1518090475.7,286046996.2,N
1518090495.5,286046995.4,N
1518090515.3,286047000.5,N
1518090535.2,286047004.2,N
1518090555.0,286047006.2,N
1518090555.9,286047006.2,N
1518090575.8,286047015.2,Y
1518090595.6,286047009.6,P
1518090615.4,286047007.8,N
1518090635.3,286047005.1,N
1518090655.1,286047005.8,N
1518090675.9,286047003.7,N
1518090695.7,286047001.3,N
1518090715.5,286047002.1,N
1518090735.4,286047002.8,N
1518090755.2,286047000.8,N
1518090775.1,286046998.2,N
1518090776.0,286046998.2,N
1518090795.8,286046998.7,N
1518090815.6,286046997.2,N
1518090835.5,286046997.9,N
1518090855.3,286046993.4,N
1518090875.2,286046994.4,N
1518090895.0,286046991.7,N
1518090895.9,286046991.7,N
1518090915.7,286046991.9,N
1518090935.6,286046990.5,N
1518090955.4,286046988.6,N
1518090975.3,286046987.1,N
1518090995.1,286046987.7,N
1518091015.8,286046989.8,N
1518091035.7,286046987.1,N
1518091055.5,286046987.1,N
1518091075.4,286046988.0,N
1518091095.2,286046985.7,N
1518091115.0,286046986.1,N
1518091115.9,286046986.1,N
1518091135.8,286046984.5,N
1518091155.6,286046984.8,N
1518091175.4,286046986.8,N
1518091195.3,286046986.5,N
